Total_Precipitation_Accumulation
0.01 0.03 0.04 0.05 0.67 1.83 2.99 1.83 1.95 1.53 2.12 1.27 0.62 1.13 1.61 0.61 0.67 0.82 0.86 0.80 0.79 0.10 0.58 0.24 0.07 0.06 0.65 0.33 0.43 0.17 0.12 0.27 0.21 1.31 0.66 0.40 0.13 0.16 0.16 0.39 0.34 0.27 0.44 0.57 0.76 0.60 0.76 0.60 0.53 0.51 0.51 0.37 0.35 0.29 0.39 0.21 0.12 0.14 0.14 0.09 0.08 0.07 0.04 0.02 0.02 0.03 0.08 0.12 0.14 0.28 0.31 0.22 0.28 0.25 0.20 0.18 0.18 0.25 0.17 0.15 0.20 0.16 0.11 0.11 0.12 0.14 0.15 0.12 0.13 0.21 0.24 0.22 0.23 0.24 0.26 0.25 0.23
0.02 0.07 0.08 0.19 0.86 2.95 2.82 1.22 1.27 0.92 1.02 1.28 0.62 0.66 0.71 0.79 0.80 0.60 0.22 0.95 0.63 0.62 0.17 0.06 0.11 0.05 0.17 0.11 0.08 0.05 0.08 0.09 0.13 0.10 0.17 0.16 0.15 0.20 0.19 0.49 0.35 0.30 0.24 0.44 0.46 0.43 0.60 0.72 0.43 0.50 0.45 0.31 0.26 0.31 0.33 0.20 0.14 0.10 0.11 0.07 0.11 0.06 0.05 0.04 0.11 0.21 0.14 0.11 0.27 0.18 0.30 0.25 0.27 0.22 0.28 0.31 0.21 0.24 0.20 0.16 0.22 0.21 0.24 0.20 0.10 0.11 0.13 0.16 0.14 0.17 0.20 0.25 0.21 0.26 0.22 0.33 0.25
0.09 0.22 0.17 0.50 1.12 1.96 2.02 1.62 1.43 1.22 1.59 1.05 0.79 0.96 0.52 0.93 0.72 0.55 0.31 0.91 0.17 0.15 0.06 0.05 0.06 0.07 0.10 0.11 0.17 0.31 0.24 0.17 0.10 0.05 0.17 0.23 0.29 0.57 0.38 0.46 0.42 0.17 0.22 0.29 0.30 0.38 0.48 0.52 0.45 0.33 0.27 0.30 0.23 0.24 0.35 0.20 0.14 0.14 0.13 0.06 0.07 0.08 0.06 0.13 0.18 0.18 0.09 0.28 0.19 0.22 0.26 0.21 0.18 0.25 0.47 0.38 0.41 0.21 0.20 0.25 0.16 0.21 0.20 0.16 0.13 0.13 0.18 0.16 0.17 0.17 0.23 0.25 0.24 0.26 0.22 0.21 0.19
0.16 0.27 0.91 0.45 2.40 0.99 2.08 1.43 1.18 1.46 1.23 1.06 0.86 0.57 1.08 0.52 0.45 0.45 0.38 0.27 0.06 0.03 0.04 0.14 0.40 0.08 0.22 0.40 0.24 0.15 0.12 0.17 0.07 0.01 0.27 0.18 0.15 0.16 0.17 0.40 0.46 0.25 0.16 0.29 0.22 0.29 0.27 0.38 0.16 0.25 0.27 0.20 0.19 0.23 0.18 0.16 0.23 0.15 0.16 0.11 0.11 0.16 0.10 0.13 0.10 0.08 0.13 0.14 0.18 0.17 0.22 0.23 0.29 0.34 0.29 0.35 0.36 0.27 0.25 0.24 0.20 0.17 0.17 0.16 0.22 0.20 0.18 0.22 0.15 0.18 0.20 0.16 0.22 0.21 0.25 0.37 0.27
0.51 0.58 0.47 1.29 1.85 1.36 0.90 0.83 0.98 1.27 1.20 0.72 1.37 0.75 0.48 0.93 0.48 0.24 0.33 0.19 0.05 0.13 0.07 0.12 0.10 0.09 0.17 0.32 0.19 0.76 0.18 0.09 0.06 0.02 0.08 0.12 0.04 0.07 0.11 0.18 0.34 0.14 0.14 0.19 0.35 0.24 0.41 0.30 0.16 0.22 0.22 0.28 0.21 0.16 0.16 0.17 0.35 0.12 0.17 0.18 0.09 0.12 0.10 0.09 0.05 0.08 0.13 0.13 0.21 0.08 0.22 0.18 0.13 0.21 0.25 0.17 0.18 0.26 0.31 0.19 0.20 0.16 0.25 0.14 0.15 0.12 0.17 0.20 0.19 0.17 0.18 0.11 0.13 0.23 0.19 0.16 0.24
0.63 0.68 0.53 1.01 2.45 2.31 0.84 1.13 0.98 0.56 0.65 0.64 1.09 0.91 0.46 0.28 0.22 0.41 0.12 0.06 0.11 0.13 0.04 0.20 0.25 0.16 0.20 0.18 0.23 0.16 0.08 0.32 0.19 0.10 0.05 0.12 0.07 0.05 0.06 0.13 0.15 0.19 0.24 0.18 0.14 0.35 0.40 0.19 0.21 0.33 0.25 0.13 0.13 0.14 0.30 0.25 0.10 0.11 0.18 0.10 0.13 0.11 0.13 0.03 0.09 0.06 0.05 0.16 0.16 0.12 0.08 0.16 0.09 0.15 0.21 0.16 0.08 0.19 0.15 0.16 0.11 0.09 0.13 0.10 0.15 0.19 0.12 0.14 0.10 0.11 0.08 0.12 0.12 0.13 0.29 0.23 0.19
0.78 0.45 0.96 0.78 0.72 1.29 1.13 0.56 0.71 0.40 0.83 0.65 0.77 0.84 0.39 0.20 0.08 0.11 0.05 0.11 0.04 0.06 0.10 0.06 0.03 0.09 0.23 0.14 0.07 0.11 0.06 0.04 0.11 0.05 0.04 0.07 0.03 0.05 0.09 0.09 0.11 0.14 0.20 0.16 0.14 0.10 0.20 0.13 0.16 0.14 0.14 0.12 0.10 0.08 0.14 0.16 0.19 0.18 0.08 0.10 0.06 0.03 0.03 0.03 0.13 0.09 0.08 0.12 0.12 0.08 0.05 0.11 0.16 0.20 0.16 0.12 0.08 0.09 0.12 0.12 0.13 0.15 0.12 0.12 0.16 0.17 0.17 0.09 0.18 0.09 0.08 0.16 0.12 0.22 0.18 0.20 0.30
0.19 0.81 1.36 0.80 1.17 0.74 0.59 0.30 0.53 0.39 0.93 0.63 0.62 0.31 0.28 0.22 0.20 0.38 0.07 0.36 0.06 0.13 0.08 0.05 0.17 0.49 0.60 0.07 0.55 0.12 0.08 0.09 0.05 0.03 0.05 0.05 0.05 0.09 0.07 0.06 0.13 0.15 0.17 0.12 0.12 0.16 0.16 0.14 0.15 0.11 0.08 0.11 0.03 0.05 0.07 0.15 0.10 0.12 0.07 0.07 0.03 0.04 0.03 0.04 0.08 0.08 0.05 0.05 0.08 0.06 0.05 0.09 0.17 0.16 0.20 0.20 0.11 0.15 0.16 0.19 0.19 0.23 0.18 0.08 0.13 0.10 0.11 0.05 0.09 0.10 0.16 0.16 0.10 0.12 0.12 0.15 0.18
0.50 0.57 0.55 0.74 0.73 0.27 0.48 0.41 0.43 0.25 0.45 0.31 0.27 0.22 0.15 0.33 0.20 0.04 0.07 0.04 0.07 0.05 0.08 0.17 0.19 0.27 0.35 0.21 0.16 0.14 0.08 0.05 0.03 0.01 0.03 0.03 0.05 0.06 0.08 0.04 0.06 0.10 0.12 0.12 0.18 0.16 0.23 0.12 0.10 0.07 0.06 0.06 0.04 0.04 0.08 0.11 0.10 0.08 0.06 0.06 0.04 0.03 0.03 0.03 0.05 0.03 0.03 0.02 0.02 0.09 0.07 0.08 0.19 0.23 0.17 0.20 0.13 0.11 0.16 0.12 0.18 0.22 0.20 0.16 0.13 0.17 0.12 0.07 0.07 0.07 0.08 0.05 0.11 0.28 0.24 0.17 0.26
1.04 0.73 2.02 0.74 0.52 0.72 0.28 0.14 0.21 0.55 0.61 0.49 0.38 0.19 0.28 0.05 0.47 0.84 0.25 0.10 0.07 0.05 0.11 0.14 0.10 0.68 0.31 0.20 0.17 0.13 0.10 0.03 0.02 0.03 0.04 0.02 0.04 0.03 0.03 0.04 0.04 0.07 0.11 0.15 0.08 0.09 0.10 0.16 0.06 0.08 0.08 0.06 0.06 0.06 0.19 0.10 0.13 0.09 0.08 0.04 0.02 0.02 0.03 0.04 0.03 0.02 0.03 0.05 0.09 0.08 0.07 0.11 0.15 0.21 0.19 0.16 0.08 0.11 0.11 0.12 0.22 0.24 0.10 0.21 0.23 0.18 0.09 0.07 0.06 0.06 0.06 0.16 0.25 0.37 0.40 0.29 0.20
0.80 0.53 0.98 0.69 0.64 0.39 0.32 0.12 0.31 0.40 0.37 0.24 0.22 0.15 0.16 0.30 0.33 0.22 0.35 0.09 0.04 0.05 0.08 0.10 0.37 0.23 0.17 0.24 0.27 0.13 0.02 0.01 0.01 0.05 0.03 0.04 0.03 0.02 0.03 0.04 0.05 0.05 0.09 0.10 0.05 0.15 0.23 0.21 0.11 0.04 0.09 0.09 0.06 0.11 0.12 0.04 0.05 0.05 0.05 0.04 0.04 0.01 0.02 0.03 0.08 0.06 0.07 0.07 0.06 0.08 0.16 0.09 0.15 0.15 0.10 0.04 0.06 0.06 0.14 0.19 0.10 0.13 0.15 0.09 0.13 0.11 0.15 0.07 0.13 0.13 0.08 0.15 0.21 0.48 0.42 0.39 0.20
1.51 0.95 0.49 0.78 0.99 0.41 0.21 0.37 0.33 0.21 0.29 0.19 0.09 0.38 0.14 0.15 0.36 0.29 0.27 0.16 0.11 0.09 0.08 0.13 0.51 0.23 0.27 0.13 0.22 0.29 0.05 0.03 0.01 0.01 0.03 0.03 0.03 0.03 0.02 0.03 0.06 0.05 0.02 0.05 0.10 0.19 0.12 0.20 0.14 0.15 0.05 0.08 0.08 0.10 0.06 0.09 0.02 0.04 0.03 0.04 0.04 0.02 0.01 0.03 0.04 0.06 0.07 0.11 0.09 0.10 0.06 0.07 0.06 0.05 0.02 0.02 0.05 0.05 0.09 0.08 0.15 0.11 0.07 0.19 0.11 0.07 0.20 0.28 0.47 0.29 0.44 0.33 0.42 0.34 0.45 0.31 0.26
0.95 0.84 1.07 0.51 0.61 0.45 0.15 0.20 0.42 0.39 0.36 0.66 0.11 0.02 0.10 0.12 0.22 0.48 0.23 0.21 0.08 0.09 0.07 0.25 0.11 0.26 0.52 0.17 0.23 0.16 0.09 0.04 0.02 0.01 0.03 0.02 0.03 0.05 0.02 0.04 0.07 0.05 0.02 0.05 0.08 0.12 0.13 0.19 0.14 0.19 0.17 0.11 0.09 0.06 0.03 0.04 0.02 0.03 0.01 0.02 0.01 0.01 0.01 0.02 0.02 0.03 0.04 0.06 0.07 0.05 0.05 0.04 0.03 0.04 0.02 0.02 0.03 0.04 0.09 0.13 0.19 0.23 0.12 0.15 0.19 0.10 0.19 0.24 0.42 0.45 0.40 0.67 0.64 0.56 0.47 0.36 0.30
0.56 0.69 1.01 0.64 0.30 0.08 0.34 0.38 0.23 0.59 0.45 0.40 0.10 0.21 0.08 0.19 0.10 0.32 0.15 0.17 0.47 0.56 0.07 0.10 0.21 0.44 0.38 0.12 0.56 0.18 0.11 0.04 0.03 0.02 0.03 0.04 0.06 0.04 0.03 0.03 0.03 0.04 0.05 0.05 0.09 0.14 0.11 0.14 0.14 0.09 0.11 0.12 0.15 0.11 0.09 0.04 0.04 0.03 0.02 0.02 0.03 0.01 0.03 0.01 0.03 0.06 0.05 0.03 0.05 0.04 0.03 0.02 0.01 0.01 0.01 0.01 0.03 0.05 0.05 0.07 0.12 0.13 0.12 0.07 0.09 0.15 0.20 0.35 0.21 0.38 0.53 0.73 0.80 0.70 0.63 0.50 0.37
0.69 0.63 0.54 0.58 0.35 0.08 0.08 0.82 0.46 0.14 0.62 0.34 0.03 0.46 0.47 0.41 0.54 0.27 0.40 0.20 0.21 0.56 0.30 0.05 0.30 0.21 0.41 0.07 0.22 0.07 0.07 0.04 0.03 0.02 0.05 0.07 0.06 0.04 0.02 0.04 0.06 0.04 0.07 0.11 0.11 0.12 0.11 0.12 0.10 0.08 0.12 0.15 0.08 0.11 0.08 0.10 0.03 0.01 0.01 0.01 0.01 0.01 0.01 0.03 0.03 0.04 0.02 0.01 0.03 0.03 0.02 0.01 0.01 0.01 0.01 0.02 0.02 0.02 0.04 0.06 0.05 0.05 0.04 0.06 0.05 0.10 0.16 0.35 0.46 0.47 0.43 0.57 0.65 0.75 0.95 0.52 0.47
0.23 0.53 0.76 0.56 0.79 0.82 0.55 0.46 0.01 0.07 0.48 0.65 0.29 0.87 0.65 0.27 0.40 0.46 0.27 0.64 0.05 0.02 0.03 0.21 0.05 0.33 0.16 0.06 0.02 0.04 0.02 0.05 0.02 0.04 0.05 0.10 0.06 0.04 0.07 0.07 0.07 0.08 0.08 0.11 0.10 0.09 0.07 0.09 0.07 0.08 0.09 0.06 0.08 0.05 0.05 0.09 0.06 0.01 0.01 0.02 0.01 0.01 0.02 0.02 0.01 0.01 0.02 0.02 0.02 0.02 0.01 0.03 0.02 0.02 0.01 0.03 0.02 0.03 0.02 0.04 0.02 0.03 0.02 0.03 0.04 0.07 0.14 0.12 0.29 0.29 0.47 0.61 0.59 0.50 0.63 0.75 0.87
0.13 0.40 0.80 0.45 0.93 0.36 0.23 0.24 0.04 0.59 0.16 0.28 0.20 0.55 0.20 0.26 0.09 0.40 0.37 0.37 0.16 0.01 0.21 0.17 0.12 0.01 0.05 0.06 0.05 0.03 0.04 0.02 0.03 0.08 0.07 0.18 0.14 0.18 0.20 0.21 0.13 0.15 0.17 0.13 0.08 0.07 0.05 0.07 0.07 0.10 0.08 0.04 0.06 0.12 0.08 0.09 0.05 0.02 0.03 0.02 0.01 0.01 0.01 0.02 0.03 0.02 0.03 0.03 0.03 0.02 0.03 0.16 0.13 0.18 0.10 0.12 0.02 0.08 0.01 0.03 0.03 0.04 0.03 0.03 0.04 0.11 0.07 0.14 0.15 0.21 0.28 0.20 0.24 0.47 0.53 0.36 0.43
0.22 0.59 0.37 0.71 1.12 0.72 0.48 0.43 0.02 0.02 0.42 0.11 0.09 0.17 0.27 0.03 0.08 0.10 0.21 0.43 0.24 0.10 0.20 0.02 0.01 0.03 0.02 0.02 0.04 0.01 0.02 0.02 0.06 0.08 0.10 0.12 0.11 0.20 0.19 0.16 0.17 0.15 0.12 0.16 0.12 0.10 0.06 0.06 0.08 0.06 0.10 0.06 0.07 0.09 0.10 0.11 0.08 0.09 0.09 0.09 0.07 0.05 0.02 0.01 0.02 0.02 0.10 0.12 0.09 0.04 0.22 0.15 0.30 0.27 0.34 0.24 0.10 0.08 0.11 0.04 0.02 0.02 0.01 0.02 0.05 0.07 0.02 0.07 0.08 0.04 0.03 0.09 0.13 0.12 0.12 0.21 0.22
0.31 0.47 0.25 1.17 0.21 0.87 0.25 0.10 0.06 0.30 0.74 0.05 0.05 0.02 0.12 0.09 0.01 0.02 0.15 0.09 0.03 0.11 0.01 0.01 0.01 0.01 0.04 0.01 0.01 0.01 0.02 0.05 0.05 0.02 0.04 0.04 0.08 0.08 0.07 0.09 0.09 0.11 0.15 0.12 0.11 0.11 0.04 0.05 0.05 0.07 0.05 0.07 0.09 0.08 0.08 0.06 0.07 0.14 0.07 0.03 0.03 0.03 0.02 0.02 0.04 0.05 0.04 0.09 0.11 0.07 0.17 0.20 0.22 0.32 0.29 0.17 0.14 0.05 0.02 0.02 0.05 0.02 0.02 0.02 0.01 0.02 0.04 0.04 0.03 0.05 0.03 0.05 0.09 0.08 0.20 0.16 0.14
0.18 0.33 0.59 0.45 0.58 0.60 0.34 0.04 0.08 0.02 0.16 0.08 0.07 0.06 0.15 0.12 0.05 0.01 0.09 0.02 0.06 0.07 0.03 0.02 0.02 0.03 0.01 0.02 0.01 0.01 0.02 0.02 0.01 0.06 0.01 0.06 0.02 0.01 0.03 0.05 0.05 0.05 0.05 0.06 0.04 0.09 0.05 0.05 0.04 0.07 0.08 0.06 0.08 0.08 0.04 0.14 0.07 0.05 0.04 0.02 0.02 0.02 0.02 0.08 0.03 0.06 0.07 0.06 0.06 0.15 0.20 0.21 0.21 0.18 0.09 0.03 0.09 0.07 0.11 0.03 0.06 0.02 0.02 0.02 0.03 0.10 0.01 0.03 0.01 0.00 0.02 0.06 0.27 0.25 0.20 0.13 0.11
0.12 0.19 0.18 0.98 0.56 0.34 0.25 0.04 0.10 0.06 0.07 0.03 0.11 0.03 0.09 0.02 0.07 0.02 0.06 0.02 0.11 0.33 0.01 0.00 0.03 0.09 0.02 0.01 0.01 0.01 0.01 0.03 0.04 0.05 0.02 0.02 0.03 0.01 0.01 0.01 0.04 0.02 0.04 0.03 0.05 0.05 0.06 0.03 0.04 0.07 0.04 0.08 0.04 0.07 0.03 0.06 0.05 0.05 0.03 0.02 0.01 0.02 0.03 0.02 0.02 0.06 0.03 0.07 0.06 0.19 0.21 0.24 0.10 0.11 0.10 0.10 0.11 0.15 0.19 0.10 0.16 0.27 0.19 0.27 0.06 0.26 0.28 0.15 0.16 0.20 0.24 0.21 0.22 0.19 0.23 0.15 0.05
0.03 0.25 0.11 0.10 0.25 0.14 0.36 0.16 0.02 0.02 0.00 0.01 0.00 0.03 0.24 0.02 0.05 0.00 0.01 0.13 0.15 0.16 0.16 0.04 0.03 0.02 0.01 0.01 0.00 0.00 0.01 0.02 0.03 0.02 0.02 0.01 0.01 0.03 0.02 0.01 0.04 0.03 0.05 0.05 0.03 0.03 0.03 0.03 0.03 0.04 0.03 0.04 0.05 0.05 0.06 0.05 0.03 0.02 0.05 0.04 0.02 0.02 0.05 0.02 0.02 0.02 0.02 0.02 0.13 0.16 0.11 0.18 0.16 0.10 0.05 0.06 0.05 0.14 0.15 0.10 0.13 0.15 0.09 0.21 0.09 0.18 0.17 0.07 0.22 0.19 0.10 0.09 0.14 0.17 0.06 0.07 0.03
0.00 0.00 0.00 0.03 0.02 0.64 0.24 0.08 0.23 0.00 0.05 0.06 0.01 0.01 0.02 0.01 0.13 0.00 0.02 0.45 0.45 0.10 0.06 0.04 0.01 0.03 0.03 0.02 0.01 0.01 0.00 0.02 0.03 0.02 0.01 0.01 0.01 0.01 0.01 0.01 0.01 0.03 0.03 0.02 0.02 0.02 0.02 0.03 0.02 0.03 0.03 0.05 0.03 0.03 0.07 0.05 0.03 0.02 0.04 0.04 0.05 0.03 0.03 0.02 0.01 0.01 0.06 0.04 0.06 0.04 0.12 0.08 0.08 0.05 0.02 0.06 0.12 0.15 0.14 0.12 0.14 0.16 0.11 0.10 0.12 0.22 0.10 0.09 0.16 0.07 0.18 0.12 0.09 0.24 0.20 0.05 0.07
0.00 0.00 0.00 0.00 0.00 0.00 0.00 0.01 0.00 0.00 0.00 0.13 0.04 0.00 0.02 0.00 0.01 0.01 0.02 0.04 0.31 0.38 0.15 0.02 0.00 0.01 0.01 0.02 0.02 0.01 0.00 0.00 0.01 0.01 0.00 0.01 0.00 0.00 0.00 0.01 0.01 0.01 0.02 0.01 0.02 0.03 0.01 0.02 0.02 0.02 0.04 0.04 0.03 0.03 0.04 0.06 0.04 0.04 0.05 0.07 0.04 0.02 0.02 0.01 0.03 0.03 0.03 0.01 0.02 0.03 0.03 0.06 0.04 0.09 0.13 0.03 0.09 0.13 0.08 0.28 0.25 0.09 0.11 0.23 0.15 0.05 0.10 0.21 0.16 0.30 0.10 0.08 0.05 0.10 0.10 0.04 0.05
0.01 0.00 0.00 0.00 0.02 0.01 0.00 0.00 0.00 0.00 0.00 0.00 0.00 0.00 0.00 0.00 0.01 0.00 0.01 0.03 0.04 0.02 0.00 0.00 0.00 0.02 0.01 0.02 0.01 0.01 0.02 0.02 0.01 0.02 0.00 0.00 0.00 0.00 0.01 0.00 0.01 0.01 0.01 0.03 0.02 0.01 0.03 0.02 0.03 0.02 0.02 0.02 0.03 0.04 0.03 0.03 0.04 0.04 0.05 0.03 0.02 0.02 0.02 0.01 0.03 0.02 0.02 0.02 0.02 0.02 0.02 0.03 0.02 0.02 0.05 0.05 0.04 0.15 0.06 0.06 0.09 0.08 0.04 0.05 0.06 0.09 0.02 0.05 0.03 0.15 0.15 0.05 0.12 0.06 0.07 0.05 0.07
0.00 0.00 0.00 0.00 0.00 0.01 0.00 0.00 0.00 0.00 0.00 0.00 0.01 0.02 0.00 0.02 0.00 0.00 0.07 0.18 0.07 0.00 0.00 0.00 0.01 0.02 0.01 0.02 0.00 0.01 0.01 0.01 0.00 0.01 0.00 0.01 0.00 0.01 0.00 0.00 0.00 0.01 0.00 0.01 0.01 0.02 0.02 0.03 0.01 0.02 0.02 0.02 0.02 0.04 0.03 0.05 0.05 0.05 0.04 0.03 0.02 0.05 0.03 0.01 0.02 0.02 0.01 0.01 0.03 0.01 0.02 0.04 0.01 0.04 0.06 0.04 0.04 0.05 0.03 0.06 0.02 0.03 0.01 0.05 0.02 0.19 0.07 0.03 0.07 0.07 0.04 0.12 0.05 0.07 0.09 0.06 0.07
0.00 0.00 0.00 0.02 0.02 0.00 0.00 0.00 0.00 0.00 0.00 0.00 0.01 0.00 0.08 0.02 0.02 0.21 0.05 0.13 0.05 0.00 0.01 0.01 0.00 0.02 0.02 0.00 0.00 0.01 0.01 0.01 0.00 0.00 0.01 0.00 0.00 0.00 0.00 0.00 0.00 0.00 0.00 0.01 0.01 0.01 0.01 0.02 0.02 0.01 0.01 0.01 0.02 0.03 0.02 0.02 0.04 0.04 0.02 0.03 0.03 0.03 0.02 0.03 0.07 0.14 0.05 0.02 0.02 0.01 0.02 0.01 0.01 0.03 0.05 0.05 0.03 0.02 0.04 0.05 0.04 0.04 0.02 0.06 0.04 0.06 0.08 0.02 0.05 0.10 0.14 0.04 0.08 0.06 0.09 0.07 0.06
0.00 0.00 0.00 0.00 0.00 0.00 0.00 0.02 0.02 0.01 0.06 0.00 0.00 0.02 0.05 0.00 0.03 0.29 0.26 0.14 0.09 0.05 0.02 0.03 0.03 0.01 0.01 0.01 0.01 0.00 0.00 0.00 0.00 0.00 0.01 0.00 0.00 0.00 0.00 0.00 0.00 0.00 0.00 0.00 0.01 0.00 0.02 0.01 0.03 0.01 0.01 0.02 0.02 0.01 0.02 0.02 0.02 0.02 0.03 0.03 0.03 0.02 0.03 0.11 0.12 0.11 0.02 0.01 0.03 0.05 0.07 0.05 0.07 0.07 0.06 0.02 0.05 0.02 0.03 0.04 0.05 0.04 0.02 0.03 0.05 0.03 0.10 0.10 0.11 0.10 0.08 0.11 0.10 0.09 0.09 0.06 0.05
0.00 0.00 0.00 0.00 0.00 0.00 0.00 0.00 0.01 0.02 0.06 0.01 0.00 0.03 0.13 0.02 0.10 0.03 0.05 0.28 0.20 0.06 0.03 0.05 0.03 0.01 0.00 0.00 0.00 0.00 0.00 0.00 0.00 0.00 0.00 0.00 0.00 0.00 0.00 0.00 0.00 0.00 0.00 0.00 0.00 0.00 0.00 0.02 0.01 0.01 0.01 0.02 0.02 0.01 0.02 0.01 0.01 0.01 0.03 0.01 0.01 0.06 0.10 0.04 0.02 0.02 0.02 0.04 0.07 0.02 0.06 0.02 0.01 0.02 0.02 0.02 0.01 0.04 0.07 0.07 0.07 0.02 0.03 0.05 0.02 0.05 0.09 0.10 0.08 0.11 0.19 0.20 0.16 0.12 0.04 0.05 0.06
0.00 0.00 0.00 0.00 0.00 0.00 0.00 0.00 0.00 0.02 0.04 0.02 0.00 0.22 0.14 0.07 0.03 0.06 0.14 0.31 0.06 0.07 0.05 0.09 0.03 0.02 0.02 0.00 0.00 0.00 0.00 0.00 0.00 0.00 0.00 0.00 0.00 0.00 0.00 0.00 0.00 0.00 0.00 0.00 0.00 0.00 0.00 0.01 0.00 0.02 0.01 0.01 0.01 0.01 0.01 0.01 0.01 0.01 0.01 0.03 0.07 0.09 0.12 0.12 0.07 0.06 0.10 0.04 0.01 0.02 0.04 0.03 0.02 0.01 0.02 0.03 0.03 0.05 0.05 0.06 0.11 0.12 0.04 0.06 0.05 0.05 0.09 0.18 0.10 0.22 0.16 0.14 0.15 0.13 0.07 0.05 0.10
0.00 0.00 0.00 0.00 0.00 0.00 0.00 0.00 0.00 0.00 0.01 0.00 0.00 0.25 0.30 0.06 0.02 0.01 0.13 0.06 0.04 0.03 0.05 0.05 0.15 0.01 0.00 0.00 0.00 0.00 0.00 0.00 0.00 0.00 0.00 0.00 0.01 0.00 0.00 0.00 0.00 0.00 0.00 0.00 0.00 0.00 0.00 0.00 0.01 0.01 0.01 0.01 0.02 0.01 0.01 0.01 0.00 0.01 0.01 0.01 0.05 0.15 0.13 0.10 0.12 0.04 0.02 0.02 0.02 0.02 0.03 0.04 0.04 0.05 0.05 0.12 0.06 0.07 0.07 0.11 0.21 0.12 0.17 0.09 0.08 0.09 0.08 0.17 0.08 0.11 0.09 0.19 0.14 0.09 0.11 0.04 0.04
0.00 0.00 0.00 0.00 0.00 0.01 0.00 0.00 0.00 0.00 0.00 0.00 0.00 0.04 0.19 0.04 0.07 0.07 0.08 0.05 0.02 0.05 0.06 0.10 0.16 0.13 0.00 0.01 0.01 0.01 0.01 0.00 0.00 0.00 0.00 0.00 0.00 0.00 0.01 0.00 0.00 0.00 0.00 0.00 0.00 0.00 0.00 0.00 0.00 0.00 0.00 0.00 0.00 0.00 0.01 0.00 0.00 0.00 0.01 0.01 0.06 0.10 0.04 0.12 0.19 0.06 0.03 0.03 0.01 0.01 0.05 0.08 0.10 0.08 0.10 0.12 0.18 0.07 0.07 0.10 0.15 0.15 0.08 0.13 0.13 0.09 0.11 0.19 0.19 0.23 0.14 0.19 0.14 0.16 0.04 0.03 0.04
0.00 0.00 0.01 0.00 0.00 0.00 0.00 0.00 0.00 0.00 0.00 0.00 0.03 0.30 0.05 0.09 0.02 0.09 0.06 0.08 0.04 0.08 0.05 0.04 0.12 0.35 0.11 0.05 0.01 0.01 0.00 0.00 0.01 0.00 0.00 0.00 0.00 0.00 0.00 0.00 0.00 0.00 0.00 0.00 0.00 0.00 0.00 0.00 0.00 0.00 0.00 0.00 0.00 0.00 0.00 0.00 0.00 0.01 0.01 0.00 0.02 0.02 0.12 0.04 0.10 0.03 0.09 0.02 0.08 0.05 0.04 0.08 0.12 0.13 0.09 0.08 0.16 0.16 0.12 0.08 0.12 0.14 0.13 0.13 0.11 0.22 0.09 0.10 0.24 0.21 0.19 0.10 0.07 0.13 0.12 0.04 0.06
0.00 0.00 0.00 0.00 0.00 0.00 0.00 0.00 0.00 0.00 0.00 0.01 0.00 0.01 0.06 0.24 0.02 0.25 0.16 0.03 0.07 0.20 0.10 0.14 0.05 0.26 0.05 0.00 0.01 0.01 0.01 0.00 0.01 0.00 0.00 0.00 0.00 0.00 0.00 0.00 0.00 0.00 0.00 0.00 0.00 0.00 0.00 0.00 0.00 0.00 0.00 0.00 0.00 0.00 0.00 0.00 0.01 0.01 0.02 0.01 0.03 0.02 0.06 0.09 0.03 0.13 0.11 0.07 0.09 0.18 0.13 0.12 0.09 0.15 0.18 0.17 0.26 0.27 0.13 0.15 0.21 0.23 0.18 0.06 0.18 0.18 0.40 0.23 0.20 0.18 0.26 0.15 0.10 0.09 0.12 0.10 0.06
0.00 0.00 0.00 0.00 0.00 0.00 0.00 0.01 0.01 0.00 0.00 0.01 0.03 0.00 0.17 0.08 0.05 0.05 0.15 0.05 0.11 0.23 0.25 0.14 0.07 0.47 0.09 0.00 0.04 0.01 0.01 0.02 0.02 0.00 0.00 0.00 0.00 0.00 0.00 0.00 0.00 0.00 0.00 0.00 0.00 0.00 0.01 0.01 0.00 0.00 0.01 0.00 0.00 0.00 0.00 0.01 0.01 0.03 0.06 0.05 0.03 0.02 0.06 0.07 0.06 0.08 0.08 0.08 0.12 0.10 0.07 0.26 0.18 0.30 0.26 0.38 0.18 0.30 0.20 0.12 0.07 0.13 0.07 0.08 0.18 0.28 0.26 0.23 0.15 0.15 0.24 0.18 0.10 0.07 0.10 0.05 0.07
0.00 0.00 0.00 0.00 0.00 0.00 0.02 0.01 0.00 0.00 0.00 0.00 0.00 0.07 0.06 0.02 0.04 0.06 0.11 0.10 0.07 0.28 0.31 0.25 0.47 0.31 0.16 0.06 0.01 0.02 0.00 0.01 0.01 0.01 0.00 0.00 0.00 0.00 0.00 0.00 0.00 0.00 0.00 0.00 0.00 0.00 0.00 0.00 0.00 0.00 0.00 0.00 0.01 0.01 0.01 0.02 0.01 0.02 0.03 0.02 0.03 0.03 0.02 0.04 0.03 0.04 0.03 0.02 0.13 0.17 0.08 0.15 0.09 0.15 0.14 0.08 0.15 0.17 0.11 0.07 0.10 0.12 0.06 0.10 0.17 0.26 0.18 0.25 0.20 0.27 0.20 0.13 0.15 0.14 0.09 0.08 0.09
0.00 0.00 0.00 0.00 0.00 0.00 0.00 0.01 0.00 0.00 0.00 0.00 0.00 0.02 0.06 0.02 0.03 0.04 0.06 0.11 0.06 0.11 0.29 0.25 0.24 0.35 0.09 0.09 0.07 0.01 0.02 0.02 0.00 0.01 0.01 0.02 0.00 0.00 0.00 0.00 0.00 0.00 0.00 0.00 0.01 0.00 0.00 0.00 0.00 0.00 0.01 0.01 0.02 0.04 0.03 0.02 0.05 0.03 0.03 0.02 0.01 0.01 0.01 0.01 0.01 0.01 0.01 0.07 0.07 0.12 0.04 0.08 0.06 0.06 0.04 0.03 0.03 0.08 0.08 0.08 0.10 0.15 0.15 0.15 0.20 0.20 0.13 0.23 0.27 0.16 0.17 0.13 0.09 0.13 0.25 0.19 0.05
0.00 0.00 0.00 0.00 0.00 0.00 0.00 0.01 0.00 0.00 0.00 0.01 0.01 0.01 0.04 0.05 0.02 0.02 0.02 0.03 0.06 0.09 0.29 0.27 0.17 0.24 0.19 0.05 0.08 0.03 0.03 0.01 0.02 0.02 0.01 0.00 0.00 0.00 0.00 0.00 0.00 0.00 0.00 0.00 0.00 0.00 0.00 0.00 0.00 0.00 0.00 0.01 0.01 0.01 0.02 0.02 0.01 0.01 0.01 0.01 0.01 0.03 0.03 0.02 0.02 0.02 0.01 0.02 0.02 0.02 0.02 0.04 0.04 0.03 0.03 0.04 0.10 0.07 0.07 0.06 0.08 0.19 0.16 0.13 0.10 0.15 0.17 0.17 0.10 0.24 0.18 0.32 0.07 0.14 0.20 0.14 0.09
0.00 0.00 0.00 0.00 0.00 0.00 0.00 0.00 0.00 0.00 0.00 0.00 0.00 0.01 0.00 0.00 0.00 0.00 0.04 0.02 0.05 0.04 0.09 0.27 0.28 0.09 0.11 0.06 0.07 0.05 0.01 0.02 0.02 0.01 0.01 0.00 0.00 0.00 0.00 0.00 0.00 0.00 0.00 0.00 0.00 0.01 0.00 0.00 0.00 0.01 0.01 0.01 0.00 0.01 0.01 0.02 0.01 0.01 0.01 0.02 0.01 0.03 0.02 0.03 0.06 0.07 0.03 0.04 0.02 0.02 0.05 0.03 0.03 0.06 0.07 0.08 0.12 0.14 0.09 0.16 0.12 0.16 0.12 0.05 0.05 0.05 0.06 0.07 0.11 0.11 0.12 0.12 0.12 0.16 0.09 0.10 0.09
0.00 0.00 0.00 0.00 0.00 0.00 0.01 0.00 0.00 0.00 0.00 0.01 0.00 0.01 0.00 0.00 0.00 0.01 0.01 0.02 0.02 0.01 0.00 0.12 0.25 0.30 0.06 0.07 0.07 0.04 0.00 0.01 0.02 0.00 0.01 0.01 0.00 0.00 0.00 0.00 0.00 0.00 0.00 0.00 0.00 0.00 0.01 0.00 0.00 0.00 0.00 0.01 0.01 0.01 0.00 0.00 0.01 0.01 0.00 0.02 0.02 0.03 0.07 0.02 0.04 0.04 0.05 0.03 0.05 0.04 0.05 0.08 0.12 0.15 0.10 0.14 0.17 0.05 0.05 0.08 0.05 0.06 0.05 0.03 0.08 0.04 0.06 0.08 0.08 0.12 0.15 0.20 0.07 0.15 0.18 0.13 0.04
0.00 0.00 0.00 0.00 0.00 0.00 0.00 0.01 0.00 0.00 0.00 0.00 0.00 0.00 0.01 0.00 0.00 0.00 0.00 0.00 0.03 0.03 0.01 0.02 0.01 0.03 0.03 0.03 0.02 0.06 0.06 0.03 0.02 0.00 0.00 0.00 0.00 0.00 0.00 0.00 0.00 0.00 0.00 0.00 0.00 0.00 0.00 0.00 0.00 0.00 0.00 0.00 0.00 0.00 0.01 0.01 0.02 0.03 0.03 0.02 0.02 0.04 0.02 0.03 0.03 0.03 0.03 0.03 0.03 0.04 0.04 0.08 0.11 0.03 0.03 0.02 0.01 0.01 0.02 0.02 0.03 0.03 0.05 0.10 0.07 0.06 0.08 0.15 0.12 0.16 0.08 0.11 0.14 0.16 0.13 0.07 0.06
0.00 0.00 0.00 0.00 0.00 0.00 0.00 0.00 0.00 0.01 0.00 0.00 0.00 0.04 0.00 0.01 0.00 0.00 0.00 0.01 0.02 0.03 0.03 0.01 0.04 0.06 0.02 0.03 0.07 0.03 0.02 0.01 0.04 0.04 0.02 0.02 0.01 0.00 0.00 0.00 0.00 0.00 0.00 0.00 0.00 0.00 0.00 0.00 0.00 0.00 0.00 0.01 0.00 0.00 0.01 0.02 0.03 0.06 0.05 0.06 0.08 0.05 0.10 0.03 0.02 0.01 0.02 0.04 0.02 0.02 0.02 0.02 0.05 0.03 0.01 0.00 0.00 0.01 0.02 0.03 0.01 0.03 0.03 0.05 0.04 0.09 0.08 0.07 0.08 0.08 0.09 0.09 0.08 0.07 0.04 0.05 0.03
0.00 0.00 0.00 0.00 0.00 0.00 0.00 0.00 0.00 0.01 0.02 0.01 0.00 0.04 0.03 0.01 0.01 0.00 0.00 0.00 0.01 0.03 0.01 0.01 0.07 0.07 0.10 0.02 0.05 0.05 0.05 0.03 0.01 0.02 0.02 0.07 0.03 0.01 0.00 0.00 0.00 0.00 0.00 0.00 0.00 0.00 0.00 0.00 0.00 0.00 0.00 0.00 0.00 0.00 0.01 0.01 0.02 0.02 0.03 0.04 0.02 0.02 0.02 0.01 0.00 0.02 0.00 0.00 0.01 0.00 0.00 0.00 0.00 0.00 0.00 0.00 0.00 0.01 0.02 0.03 0.02 0.02 0.03 0.08 0.05 0.10 0.05 0.05 0.04 0.04 0.03 0.04 0.06 0.06 0.03 0.02 0.01
0.00 0.00 0.00 0.00 0.00 0.00 0.00 0.00 0.00 0.01 0.00 0.00 0.00 0.00 0.03 0.05 0.01 0.00 0.00 0.00 0.01 0.02 0.01 0.00 0.01 0.04 0.05 0.03 0.04 0.07 0.07 0.02 0.03 0.01 0.02 0.01 0.01 0.02 0.01 0.00 0.00 0.00 0.00 0.00 0.00 0.00 0.00 0.00 0.00 0.00 0.00 0.00 0.00 0.00 0.01 0.01 0.01 0.01 0.01 0.01 0.01 0.01 0.00 0.01 0.00 0.00 0.00 0.01 0.01 0.00 0.00 0.00 0.01 0.00 0.00 0.00 0.00 0.01 0.01 0.05 0.03 0.02 0.01 0.02 0.06 0.06 0.05 0.03 0.02 0.03 0.03 0.03 0.04 0.05 0.06 0.02 0.01
0.00 0.00 0.00 0.00 0.00 0.00 0.00 0.00 0.00 0.00 0.01 0.05 0.01 0.00 0.02 0.00 0.00 0.00 0.00 0.00 0.01 0.00 0.01 0.00 0.03 0.03 0.05 0.03 0.03 0.02 0.03 0.03 0.02 0.03 0.02 0.01 0.00 0.01 0.02 0.01 0.00 0.00 0.00 0.00 0.00 0.00 0.00 0.00 0.00 0.00 0.00 0.00 0.00 0.00 0.00 0.00 0.00 0.01 0.01 0.01 0.01 0.00 0.01 0.00 0.00 0.00 0.00 0.00 0.00 0.01 0.00 0.00 0.01 0.00 0.00 0.00 0.01 0.01 0.01 0.03 0.03 0.02 0.02 0.03 0.04 0.04 0.06 0.04 0.03 0.04 0.04 0.04 0.03 0.03 0.02 0.02 0.02
0.00 0.00 0.00 0.00 0.00 0.00 0.00 0.00 0.01 0.01 0.01 0.01 0.00 0.00 0.04 0.00 0.01 0.00 0.00 0.00 0.00 0.00 0.01 0.03 0.02 0.12 0.04 0.04 0.05 0.02 0.06 0.07 0.06 0.05 0.03 0.02 0.01 0.02 0.03 0.02 0.02 0.01 0.00 0.00 0.00 0.00 0.00 0.00 0.00 0.00 0.00 0.00 0.00 0.00 0.00 0.00 0.00 0.00 0.00 0.00 0.00 0.01 0.00 0.00 0.00 0.00 0.00 0.00 0.00 0.00 0.00 0.00 0.00 0.01 0.00 0.00 0.00 0.00 0.01 0.01 0.02 0.02 0.02 0.05 0.02 0.02 0.02 0.02 0.03 0.02 0.03 0.03 0.02 0.02 0.02 0.02 0.02
0.00 0.00 0.00 0.00 0.00 0.00 0.00 0.00 0.00 0.01 0.00 0.00 0.00 0.00 0.00 0.02 0.00 0.01 0.00 0.00 0.00 0.00 0.00 0.00 0.01 0.02 0.06 0.03 0.05 0.04 0.03 0.06 0.09 0.04 0.01 0.01 0.01 0.02 0.03 0.02 0.00 0.00 0.01 0.00 0.00 0.00 0.00 0.00 0.00 0.00 0.00 0.00 0.00 0.00 0.00 0.00 0.00 0.00 0.00 0.00 0.00 0.01 0.01 0.00 0.00 0.00 0.00 0.00 0.00 0.00 0.01 0.00 0.00 0.00 0.00 0.00 0.00 0.00 0.01 0.01 0.01 0.01 0.02 0.01 0.01 0.01 0.01 0.02 0.01 0.01 0.01 0.01 0.02 0.02 0.02 0.02 0.01
0.00 0.00 0.00 0.00 0.00 0.00 0.00 0.00 0.00 0.00 0.00 0.00 0.00 0.00 0.01 0.04 0.00 0.00 0.00 0.00 0.00 0.00 0.00 0.00 0.00 0.01 0.01 0.01 0.03 0.03 0.01 0.02 0.08 0.08 0.03 0.01 0.02 0.00 0.00 0.00 0.00 0.00 0.00 0.00 0.00 0.00 0.00 0.00 0.00 0.00 0.00 0.00 0.00 0.00 0.00 0.00 0.00 0.00 0.00 0.00 0.00 0.00 0.00 0.00 0.00 0.00 0.00 0.00 0.00 0.00 0.00 0.00 0.00 0.00 0.00 0.00 0.00 0.00 0.00 0.00 0.00 0.01 0.01 0.01 0.01 0.01 0.01 0.01 0.01 0.01 0.01 0.01 0.01 0.02 0.02 0.01 0.03
0.00 0.00 0.00 0.00 0.00 0.00 0.00 0.00 0.00 0.00 0.00 0.00 0.00 0.00 0.00 0.00 0.00 0.00 0.00 0.00 0.00 0.00 0.00 0.00 0.00 0.00 0.01 0.01 0.02 0.01 0.01 0.03 0.06 0.02 0.06 0.02 0.00 0.00 0.00 0.00 0.00 0.00 0.00 0.00 0.00 0.00 0.00 0.00 0.00 0.00 0.00 0.00 0.00 0.00 0.00 0.00 0.00 0.00 0.00 0.00 0.00 0.00 0.00 0.00 0.00 0.00 0.00 0.00 0.00 0.00 0.00 0.00 0.00 0.00 0.00 0.00 0.00 0.00 0.00 0.00 0.00 0.00 0.01 0.00 0.00 0.01 0.01 0.01 0.01 0.01 0.01 0.01 0.00 0.01 0.02 0.02 0.02
0.00 0.00 0.00 0.00 0.00 0.00 0.00 0.00 0.00 0.00 0.00 0.00 0.00 0.00 0.00 0.00 0.00 0.00 0.00 0.00 0.00 0.00 0.00 0.00 0.00 0.00 0.00 0.00 0.01 0.00 0.01 0.04 0.04 0.02 0.04 0.02 0.01 0.02 0.00 0.00 0.00 0.00 0.00 0.00 0.00 0.00 0.00 0.00 0.00 0.00 0.00 0.00 0.00 0.00 0.00 0.00 0.00 0.00 0.00 0.00 0.00 0.00 0.00 0.00 0.00 0.00 0.00 0.00 0.00 0.00 0.00 0.00 0.00 0.00 0.00 0.00 0.00 0.00 0.00 0.00 0.00 0.00 0.00 0.00 0.00 0.00 0.01 0.01 0.01 0.01 0.01 0.01 0.00 0.00 0.00 0.01 0.02
0.00 0.00 0.00 0.00 0.00 0.00 0.00 0.00 0.00 0.00 0.00 0.00 0.00 0.00 0.00 0.02 0.00 0.00 0.00 0.00 0.00 0.00 0.00 0.00 0.00 0.00 0.00 0.00 0.00 0.00 0.00 0.03 0.05 0.04 0.03 0.05 0.03 0.00 0.01 0.01 0.00 0.00 0.00 0.00 0.00 0.00 0.00 0.00 0.00 0.00 0.00 0.00 0.00 0.00 0.00 0.00 0.00 0.00 0.00 0.00 0.00 0.00 0.00 0.00 0.00 0.00 0.00 0.00 0.00 0.00 0.00 0.00 0.00 0.00 0.00 0.00 0.00 0.00 0.00 0.00 0.00 0.00 0.00 0.00 0.00 0.00 0.01 0.01 0.01 0.01 0.01 0.01 0.00 0.00 0.00 0.01 0.01
0.00 0.00 0.00 0.00 0.00 0.00 0.00 0.00 0.00 0.00 0.00 0.00 0.00 0.00 0.00 0.00 0.00 0.00 0.00 0.00 0.00 0.00 0.00 0.00 0.00 0.00 0.00 0.00 0.00 0.01 0.00 0.01 0.01 0.02 0.03 0.04 0.06 0.04 0.03 0.00 0.00 0.00 0.00 0.00 0.00 0.00 0.00 0.00 0.00 0.00 0.00 0.00 0.00 0.00 0.00 0.00 0.00 0.00 0.00 0.00 0.00 0.00 0.00 0.00 0.00 0.00 0.00 0.00 0.00 0.00 0.00 0.00 0.00 0.00 0.01 0.00 0.00 0.00 0.00 0.00 0.00 0.00 0.00 0.00 0.00 0.00 0.00 0.00 0.01 0.01 0.02 0.01 0.01 0.00 0.00 0.01 0.01
0.00 0.00 0.00 0.00 0.00 0.00 0.00 0.00 0.00 0.00 0.00 0.00 0.00 0.00 0.00 0.00 0.00 0.00 0.00 0.00 0.00 0.00 0.00 0.00 0.00 0.00 0.00 0.00 0.00 0.00 0.00 0.00 0.00 0.00 0.00 0.02 0.03 0.03 0.03 0.01 0.01 0.00 0.00 0.00 0.00 0.00 0.00 0.00 0.00 0.00 0.00 0.00 0.00 0.00 0.00 0.00 0.00 0.00 0.00 0.00 0.00 0.00 0.00 0.00 0.00 0.00 0.00 0.00 0.00 0.00 0.02 0.01 0.00 0.00 0.00 0.00 0.01 0.00 0.00 0.00 0.00 0.00 0.00 0.00 0.00 0.00 0.00 0.00 0.00 0.01 0.01 0.01 0.01 0.01 0.00 0.01 0.01
0.00 0.00 0.00 0.00 0.00 0.00 0.00 0.00 0.00 0.00 0.00 0.00 0.00 0.00 0.00 0.00 0.01 0.00 0.00 0.00 0.00 0.00 0.00 0.00 0.00 0.00 0.00 0.00 0.00 0.00 0.00 0.00 0.01 0.00 0.00 0.00 0.00 0.01 0.01 0.00 0.03 0.00 0.00 0.00 0.00 0.00 0.00 0.00 0.00 0.00 0.00 0.00 0.00 0.00 0.00 0.00 0.00 0.00 0.00 0.00 0.00 0.00 0.00 0.00 0.00 0.00 0.00 0.00 0.00 0.00 0.01 0.00 0.00 0.00 0.00 0.00 0.00 0.00 0.00 0.00 0.00 0.00 0.00 0.00 0.00 0.00 0.00 0.00 0.00 0.00 0.00 0.01 0.00 0.00 0.00 0.01 0.02
0.00 0.00 0.00 0.00 0.00 0.00 0.00 0.00 0.00 0.00 0.00 0.00 0.00 0.00 0.00 0.00 0.00 0.00 0.00 0.00 0.00 0.00 0.00 0.00 0.00 0.00 0.00 0.00 0.00 0.00 0.00 0.00 0.00 0.04 0.02 0.02 0.04 0.00 0.00 0.00 0.01 0.00 0.00 0.00 0.00 0.00 0.00 0.00 0.00 0.00 0.00 0.00 0.00 0.00 0.00 0.00 0.00 0.00 0.00 0.00 0.00 0.00 0.00 0.00 0.00 0.00 0.00 0.00 0.00 0.00 0.00 0.00 0.00 0.00 0.00 0.00 0.00 0.00 0.00 0.00 0.00 0.00 0.00 0.00 0.00 0.00 0.00 0.00 0.00 0.00 0.00 0.01 0.00 0.00 0.00 0.00 0.01
0.00 0.00 0.00 0.00 0.00 0.00 0.00 0.00 0.00 0.00 0.00 0.00 0.00 0.00 0.00 0.00 0.00 0.00 0.00 0.00 0.00 0.00 0.00 0.00 0.00 0.00 0.00 0.00 0.00 0.00 0.00 0.00 0.00 0.01 0.02 0.02 0.01 0.04 0.02 0.01 0.00 0.01 0.00 0.01 0.00 0.00 0.00 0.00 0.00 0.00 0.00 0.00 0.00 0.00 0.00 0.00 0.00 0.00 0.00 0.00 0.00 0.00 0.00 0.00 0.00 0.00 0.00 0.00 0.00 0.00 0.00 0.00 0.00 0.00 0.00 0.00 0.00 0.00 0.00 0.00 0.00 0.00 0.00 0.00 0.00 0.00 0.00 0.00 0.00 0.00 0.00 0.00 0.00 0.00 0.00 0.00 0.00
0.00 0.00 0.00 0.00 0.00 0.00 0.00 0.00 0.00 0.00 0.00 0.00 0.00 0.00 0.00 0.00 0.00 0.00 0.00 0.00 0.00 0.00 0.00 0.00 0.00 0.00 0.00 0.00 0.00 0.00 0.00 0.00 0.00 0.00 0.01 0.02 0.01 0.03 0.04 0.04 0.04 0.05 0.06 0.09 0.00 0.00 0.00 0.00 0.00 0.00 0.00 0.00 0.00 0.00 0.00 0.00 0.00 0.00 0.00 0.00 0.00 0.00 0.00 0.00 0.00 0.00 0.00 0.00 0.00 0.00 0.00 0.00 0.00 0.00 0.00 0.00 0.00 0.00 0.00 0.00 0.01 0.00 0.00 0.00 0.00 0.00 0.00 0.00 0.00 0.01 0.00 0.00 0.00 0.00 0.00 0.00 0.00
0.00 0.00 0.00 0.00 0.00 0.00 0.00 0.00 0.00 0.00 0.00 0.00 0.00 0.00 0.00 0.00 0.00 0.00 0.00 0.00 0.00 0.00 0.00 0.00 0.00 0.00 0.00 0.00 0.00 0.00 0.00 0.00 0.00 0.01 0.01 0.01 0.00 0.02 0.04 0.05 0.01 0.03 0.00 0.00 0.00 0.00 0.00 0.00 0.00 0.00 0.00 0.00 0.00 0.00 0.00 0.00 0.00 0.00 0.00 0.00 0.00 0.00 0.00 0.00 0.00 0.00 0.00 0.00 0.00 0.01 0.00 0.00 0.00 0.00 0.00 0.00 0.00 0.00 0.00 0.00 0.00 0.00 0.01 0.03 0.00 0.00 0.00 0.01 0.01 0.00 0.00 0.00 0.00 0.00 0.00 0.00 0.00